星链-33961 (STARLINK-33961)

导读

STARLINK-33961是美国(US)于2025年5月16日发射的星链卫星,星链是SpaceX打造的低轨卫星互联网星座项目。这类卫星通过密集组网为全球提供高速互联网服务,尤其覆盖偏远与基础设施薄弱区域。该卫星入轨后,将和其他星链卫星协同,进一步扩展星座服务覆盖范围与网络容量。

Basic Information
目录编号:
64047
目录名称:
STARLINK-33961
国际标识:
2025-102AB
轨道中心:
EARTH
卫星名称:
星链-33961
卫星全名:
星链-33961 (STARLINK-33961)
卫星状态:
在轨 (已飞行476 天)
发射日期:
2025-05-16 UTC
国别 :
美国 (US)
星等 :
--
Orbit Information
数据来源 国际轨道数据
星历时间: 2026-09-04T12:00:02+0800
7小时前
查看轨道信息
半长轴: 6877.534km
偏心率: 0.0002847
轨道倾角: 70.002°
近地点辐角 280.126°
升交点赤经 24.235°
平近点角 20.795°
近地点: 497.438km
远地点: 501.356km
周期: 94.604分钟
每日圈数: 15.221367
Detailed Information
固有亮度:
5
最大亮度:
2.5
卫星平台:
Starlink V1.0
覆盖范围:
全球
运营商:
太空探索技术公司
运营商所在国:
美国
制造商(研发单位):
太空探索技术公司
制造商所在国:
美国
使用方式:
暂无
Satellite Introduction
Starlink 计划是 SpaceX 推出的全球卫星互联网项目,通过发射低轨道卫星,为全球尤其是偏远地区提供高速、低延迟的互联网服务。自 2019 年起,Starlink 已部署数千颗卫星,旨在缩小全球数字鸿沟,推动互联网普及。该项目还为军事、航空等行业提供通信支持,带来广泛经济效益。
2D Orbit Map
3D Orbit Map
Orbit Altitude Analysis Chart
Orbit Inclination Analysis Chart
Orbit Comprehensive Analysis Chart
View Comprehensive Chart
Conjunction Data List
Event ID Objects TCA Miss Dist (km) Collision Risk Probability Collision Risk Index (CRI) Action
CDM_260905-154704-738906-404721
2026-09-05T
15:47:32+0000
1.339 km
极远距离
7.787805E-6 低风险 0.53
CDM_260905-035604-603406-404721
2026-09-05T
03:56:31+0000
1.080 km
极远距离
6.152372E-6 低风险 0.51
CDM_260904-033206-391406-404721
2026-09-04T
03:32:48+0000
1.933 km
极远距离
2.718938E-6 低风险 0.44
CDM_260904-020006-404706-793821
2026-09-04T
02:00:19+0000
2.083 km
极远距离
2.174246E-6 低风险 0.42
CDM_260904-220006-404706-618821
2026-09-04T
22:00:51+0000
2.592 km
极远距离
1.383133E-6 低风险 0.38
CDM_260904-171704-808006-404721
2026-09-04T
17:17:15+0000
2.565 km
极远距离
1.36357E-6 低风险 0.38
CDM_260904-022706-404706-660721
2026-09-04T
02:27:13+0000
2.605 km
极远距离
1.320847E-6 低风险 0.37